Regional Weather Roundup
Issued by NWS

Home | Current Version | Previous Version | Text Only | Print | Product List | Glossary Off
Versions: 1 2 3 4 5 6 7 8 9 10 11 12 13 14 15 16 17 18 19 20 21 22 23 24 25 26 27 28 29 30 31 32 33 34 35 36 37 38 39 40 41 42 43 44 45 46 47 48 49 50

000
ASUS43 KBIS 170710
RWRND

NORTH DAKOTA REGIONAL WEATHER ROUNDUP
NATIONAL WEATHER SERVICE BISMARCK ND
100 AM CST SUN DEC 17 2017

NOTE: "FAIR" INDICATES FEW OR NO CLOUDS BELOW 12,000 FEET WITH NO
SIGNIFICANT WEATHER AND/OR OBSTRUCTIONS TO VISIBILITY.


NDZ001>003-009>011-017-170800-
NORTHWEST NORTH DAKOTA

CITY           SKY/WX    TMP DP  RH WIND       PRES   REMARKS
WILLISTON      CLEAR     23  17  78 SW7       30.04F WCI  15
MINOT          CLEAR     27  18  69 SW10      30.00F WCI  17
MINOT AFB      CLEAR     22  17  79 W10       29.99F WCI  12
$$

NDZ018>021-031>035-040>046-170800-
SOUTHWEST NORTH DAKOTA

CITY           SKY/WX    TMP DP  RH WIND       PRES   REMARKS
BISMARCK       CLOUDY    26  22  84 W5        30.07F
DICKINSON      CLOUDY    23  17  78 W7        30.02F WCI  15
GARRISON         N/A     25  19  78 W10       30.03S WCI  15
HETTINGER ARPT CLOUDY    20  16  84 CALM      30.06F
$$

NDZ004>008-012>016-024-026-027-054-170800-
NORTHEAST NORTH DAKOTA

CITY           SKY/WX    TMP DP  RH WIND       PRES   REMARKS
GRAND FORKS    CLOUDY    16  14  92 S9        30.04F WCI   4
GRND FRKS AFB  CLOUDY    19  17  93 SW7       30.03F WCI  10
DEVILS LAKE    CLOUDY    21  18  88 SW8       30.01F WCI  11
$$

NDZ022-023-025-028>030-036>039-047>053-170800-
SOUTHEAST NORTH DAKOTA

CITY           SKY/WX    TMP DP  RH WIND       PRES   REMARKS
FARGO          MOCLDY    25  25 100 S7        30.08F FOG     WCI  17
JAMESTOWN      CLOUDY    26  25  96 SW3       30.04F
$$





USA.gov is the U.S. government's official web portal to all federal, state and local government web resources and services.